{"data":{"norad_id":65646,"epoch":"2026-09-20T22:43:13.435392Z","epoch_age_seconds":70167,"freshness":"FRESH","line1":"1 65646U 25210AA  26263.94668328  .00017118  00000+0  51639-3 0  9996","line2":"2 65646  53.1662 119.5771 0001314 303.2424  56.8452 15.34413336 57634","mean_motion":15.34413336,"eccentricity":0.0001314,"inclination_deg":53.1662,"raan_deg":119.5771,"arg_perigee_deg":303.2424,"mean_anomaly_deg":56.8452,"bstar":0.00051639,"rev_number":5763,"period_min":93.846942425167,"perigee_km":461.76472189251,"apogee_km":463.562484291,"semimajor_km":6840.8006030918,"source":"CELESTRAK","updated_at":"2026-09-21T09:00:35.677844Z"}}